EWG7587 LEPA-EDDH

Flight info

Callsign EWG7587
Flight time 2h 41m
Altitude 34000
Route MEROS N853 LUMAS/N0451F360 DCT MAXIR DCT LUSOL DCT BODRU DCT OKTET DCT IRMAR DCT KINES DCT VANAS DCT ESOKO DCT GODRA/N0457F350 DCT LOKTA DCT TEDGO DCT HAREM DCT LOHRE DCT ELNAT/N0456F360 P605 NOLGO NOLGO3P
Aircraft A21N/M-SDE2E3FGHIRWXY/LB1

Departure

Time 2026-04-22 16:11
Airport Palma de Mallorca Airport (LEPA)

Arrival

Time 2026-04-22 18:53
Airport Hamburg Helmut Schmidt Airport (EDDH)
Time Latitude Longitude Altitude Speed Heading
2026-04-22 15:25 39.55054 2.73538 36 ft 0 kts 163°
2026-04-22 16:01 39.55060 2.73536 35 ft 4 kts 163°
2026-04-22 16:01 39.55084 2.73527 35 ft 4 kts 152°
2026-04-22 16:01 39.55093 2.73512 35 ft 4 kts 70°
2026-04-22 16:01 39.55084 2.73488 35 ft 4 kts 59°
2026-04-22 16:02 39.55077 2.73473 35 ft 1 kts 59°
2026-04-22 16:06 39.55084 2.73489 35 ft 4 kts 59°
2026-04-22 16:06 39.55104 2.73533 35 ft 7 kts 59°
2026-04-22 16:06 39.55138 2.73604 35 ft 11 kts 59°
2026-04-22 16:07 39.55178 2.73707 35 ft 15 kts 91°
2026-04-22 16:07 39.55201 2.73825 35 ft 18 kts 353°
2026-04-22 16:07 39.55323 2.73738 35 ft 25 kts 327°
2026-04-22 16:07 39.55502 2.73597 35 ft 33 kts 328°
2026-04-22 16:08 39.55649 2.73504 35 ft 24 kts 36°
2026-04-22 16:08 39.55738 2.73675 35 ft 24 kts 58°
2026-04-22 16:08 39.55823 2.73855 35 ft 20 kts 58°
2026-04-22 16:08 39.55894 2.73899 35 ft 13 kts 336°
2026-04-22 16:09 39.55914 2.73885 35 ft 0 kts 329°
2026-04-22 16:09 39.55935 2.73869 35 ft 9 kts 329°
2026-04-22 16:09 39.56007 2.73811 35 ft 13 kts 320°
2026-04-22 16:09 39.55983 2.73739 35 ft 3 kts 230°
2026-04-22 16:10 39.55976 2.73727 35 ft 0 kts 236°
2026-04-22 16:10 39.55976 2.73726 35 ft 2 kts 236°
2026-04-22 16:10 39.55945 2.73661 35 ft 32 kts 241°
2026-04-22 16:10 39.55555 2.72834 36 ft 126 kts 238°
2026-04-22 16:11 39.55003 2.71683 174 ft 161 kts 238°
2026-04-22 16:11 39.54418 2.70453 804 ft 161 kts 235°
2026-04-22 16:11 39.53794 2.69205 1378 ft 170 kts 239°
2026-04-22 16:11 39.53138 2.67861 1915 ft 182 kts 239°
2026-04-22 16:12 39.52433 2.66429 2484 ft 194 kts 238°
2026-04-22 16:12 39.51686 2.64902 3060 ft 207 kts 238°
2026-04-22 16:12 39.50890 2.63282 3671 ft 218 kts 238°
2026-04-22 16:12 39.50067 2.61611 4327 ft 223 kts 239°
2026-04-22 16:13 39.49000 2.60055 4772 ft 245 kts 217°
2026-04-22 16:13 39.47456 2.58857 4958 ft 268 kts 211°
2026-04-22 16:13 39.45809 2.57705 5215 ft 270 kts 210°
2026-04-22 16:13 39.44143 2.56527 5961 ft 274 kts 210°
2026-04-22 16:14 39.42361 2.55629 6738 ft 278 kts 190°
2026-04-22 16:14 39.40415 2.55711 7480 ft 284 kts 166°
2026-04-22 16:14 39.38653 2.56814 8216 ft 291 kts 142°
2026-04-22 16:14 39.37349 2.58821 8951 ft 297 kts 117°
2026-04-22 16:15 39.36667 2.61352 9716 ft 301 kts 107°
2026-04-22 16:15 39.35695 2.63757 10286 ft 310 kts 132°
2026-04-22 16:15 39.34116 2.65778 10636 ft 329 kts 139°
2026-04-22 16:15 39.32354 2.67820 10932 ft 349 kts 139°
2026-04-22 16:16 39.30622 2.70143 11205 ft 369 kts 127°
2026-04-22 16:16 39.29311 2.73075 11458 ft 386 kts 111°
2026-04-22 16:16 39.28671 2.76504 11712 ft 401 kts 94°
2026-04-22 16:16 39.28592 2.80158 11955 ft 414 kts 87°
2026-04-22 16:17 39.28664 2.83913 12362 ft 421 kts 87°
2026-04-22 16:17 39.28723 2.87708 12879 ft 425 kts 87°
2026-04-22 16:17 39.28777 2.91531 13418 ft 428 kts 85°
2026-04-22 16:17 39.29241 2.95314 13904 ft 428 kts 71°
2026-04-22 16:18 39.30403 2.98788 14311 ft 427 kts 58°
2026-04-22 16:18 39.31922 3.02104 14741 ft 429 kts 56°
2026-04-22 16:18 39.33474 3.05414 15205 ft 433 kts 56°
2026-04-22 16:18 39.35023 3.08762 15651 ft 436 kts 57°
2026-04-22 16:19 39.36579 3.12159 16077 ft 440 kts 57°
2026-04-22 16:19 39.38136 3.15579 16453 ft 443 kts 57°
2026-04-22 16:19 39.39693 3.19012 16824 ft 446 kts 57°
2026-04-22 16:19 39.41271 3.22495 17206 ft 449 kts 57°
2026-04-22 16:20 39.42849 3.25984 17578 ft 451 kts 57°
2026-04-22 16:20 39.44458 3.29487 17933 ft 454 kts 57°
2026-04-22 16:20 39.46084 3.33015 18295 ft 457 kts 57°
2026-04-22 16:20 39.47718 3.36564 18617 ft 460 kts 57°
2026-04-22 16:21 39.49361 3.40124 18962 ft 462 kts 57°
2026-04-22 16:21 39.51014 3.43714 19319 ft 464 kts 57°
2026-04-22 16:21 39.52664 3.47305 19690 ft 466 kts 57°
2026-04-22 16:21 39.53763 3.49702 19945 ft 467 kts 57°
2026-04-22 16:22 39.57089 3.56970 20668 ft 471 kts 57°
2026-04-22 16:22 39.59321 3.61874 21212 ft 474 kts 57°
2026-04-22 16:22 39.60434 3.64318 21512 ft 476 kts 57°
2026-04-22 16:23 39.63812 3.71750 22351 ft 480 kts 57°
2026-04-22 16:23 39.65518 3.75491 22744 ft 482 kts 57°
2026-04-22 16:23 39.67233 3.79233 23121 ft 484 kts 57°
2026-04-22 16:24 39.68955 3.83010 23483 ft 487 kts 57°
2026-04-22 16:24 39.72405 3.90627 24144 ft 490 kts 57°
2026-04-22 16:24 39.74123 3.94436 24586 ft 489 kts 57°
2026-04-22 16:25 39.75841 3.98240 25019 ft 487 kts 57°
2026-04-22 16:25 39.79225 4.05773 25872 ft 484 kts 57°
2026-04-22 16:25 39.80911 4.09548 26301 ft 482 kts 57°
2026-04-22 16:26 39.82603 4.13318 26734 ft 480 kts 56°
2026-04-22 16:26 39.84519 4.16842 27145 ft 475 kts 46°
2026-04-22 16:26 39.86911 4.19748 27537 ft 468 kts 33°
2026-04-22 16:26 39.89694 4.21882 27923 ft 461 kts 21°
2026-04-22 16:27 39.92719 4.23191 28304 ft 455 kts
2026-04-22 16:27 39.95817 4.23942 28734 ft 452 kts
2026-04-22 16:27 39.98916 4.24625 29153 ft 451 kts
2026-04-22 16:27 40.02009 4.25320 29564 ft 450 kts
2026-04-22 16:28 40.05079 4.26028 29968 ft 449 kts
2026-04-22 16:28 40.08160 4.26748 30327 ft 447 kts
2026-04-22 16:28 40.11209 4.27466 30673 ft 446 kts
2026-04-22 16:28 40.14258 4.28185 31025 ft 444 kts
2026-04-22 16:29 40.17290 4.28898 31371 ft 442 kts
2026-04-22 16:29 40.20318 4.29614 31730 ft 440 kts
2026-04-22 16:29 40.23329 4.30326 32075 ft 439 kts
2026-04-22 16:29 40.26329 4.31034 32404 ft 437 kts
2026-04-22 16:30 40.28304 4.31501 32620 ft 436 kts
2026-04-22 16:30 40.32256 4.32439 33035 ft 434 kts
2026-04-22 16:30 40.35221 4.33143 33339 ft 432 kts
2026-04-22 16:30 40.38175 4.33844 33623 ft 431 kts
2026-04-22 16:31 40.41124 4.34544 33904 ft 430 kts
2026-04-22 16:31 40.44069 4.35245 34060 ft 431 kts
2026-04-22 16:31 40.49964 4.36648 34057 ft 429 kts
2026-04-22 16:32 40.55846 4.38050 34038 ft 429 kts
2026-04-22 16:32 40.61732 4.39457 34038 ft 429 kts
2026-04-22 16:33 40.67615 4.40869 34038 ft 429 kts
2026-04-22 16:33 40.73495 4.42281 34038 ft 429 kts
2026-04-22 16:34 40.79380 4.43694 34039 ft 429 kts
2026-04-22 16:34 40.85261 4.45110 34047 ft 430 kts
2026-04-22 16:35 40.91114 4.46524 34042 ft 430 kts
2026-04-22 16:35 40.97000 4.47954 34048 ft 431 kts
2026-04-22 16:36 41.02904 4.49388 34050 ft 431 kts
2026-04-22 16:36 41.08809 4.50825 34053 ft 431 kts
2026-04-22 16:37 41.14711 4.52261 34051 ft 431 kts
2026-04-22 16:37 41.20604 4.53695 34053 ft 431 kts
2026-04-22 16:38 41.26463 4.55124 34063 ft 430 kts
2026-04-22 16:38 41.32351 4.56564 34057 ft 429 kts
2026-04-22 16:39 41.38207 4.58003 34075 ft 424 kts
2026-04-22 16:39 41.44019 4.59434 34066 ft 424 kts
2026-04-22 16:40 41.49823 4.60858 34065 ft 424 kts
2026-04-22 16:41 41.58506 4.62997 34065 ft 425 kts
2026-04-22 16:41 41.64318 4.64435 34071 ft 425 kts
2026-04-22 16:42 41.70128 4.65877 34081 ft 425 kts
2026-04-22 16:42 41.75741 4.68551 34076 ft 436 kts 24°
2026-04-22 16:43 41.80966 4.72757 34077 ft 437 kts 26°
2026-04-22 16:43 41.86169 4.76990 34079 ft 437 kts 26°
2026-04-22 16:44 41.91351 4.81168 34081 ft 438 kts 26°
2026-04-22 16:44 41.96573 4.85384 34080 ft 438 kts 26°
2026-04-22 16:45 42.01801 4.89607 34080 ft 438 kts 26°
2026-04-22 16:45 42.07022 4.93831 34080 ft 438 kts 26°
2026-04-22 16:46 42.12239 4.98072 34098 ft 437 kts 26°
2026-04-22 16:46 42.17449 5.02312 34088 ft 438 kts 26°
2026-04-22 16:47 42.22664 5.06570 34090 ft 438 kts 26°
2026-04-22 16:47 42.27871 5.10823 34089 ft 438 kts 26°
2026-04-22 16:48 42.33089 5.15089 34092 ft 438 kts 26°
2026-04-22 16:48 42.38300 5.19352 34095 ft 438 kts 26°
2026-04-22 16:49 42.43476 5.23599 34096 ft 438 kts 26°
2026-04-22 16:49 42.48689 5.27887 34097 ft 438 kts 26°
2026-04-22 16:50 42.53893 5.32180 34105 ft 438 kts 26°
2026-04-22 16:50 42.59095 5.36496 34117 ft 436 kts 26°
2026-04-22 16:51 42.64264 5.40804 34100 ft 436 kts 26°
2026-04-22 16:51 42.69440 5.45100 34099 ft 436 kts 26°
2026-04-22 16:52 42.74631 5.49382 34110 ft 436 kts 26°
2026-04-22 16:52 42.79813 5.53677 34106 ft 436 kts 26°
2026-04-22 16:53 42.84953 5.57979 34107 ft 436 kts 26°
2026-04-22 16:53 42.90132 5.62303 34103 ft 438 kts 26°
2026-04-22 16:54 42.95342 5.66662 34101 ft 440 kts 26°
2026-04-22 16:54 43.00562 5.71048 34120 ft 440 kts 26°
2026-04-22 16:55 43.05737 5.75400 34116 ft 435 kts 26°
2026-04-22 16:55 43.10897 5.79747 34119 ft 436 kts 26°
2026-04-22 16:56 43.16058 5.84111 34113 ft 437 kts 26°
2026-04-22 16:56 43.21233 5.88498 34107 ft 437 kts 26°
2026-04-22 16:57 43.26403 5.92877 34108 ft 436 kts 26°
2026-04-22 16:57 43.31561 5.97261 34124 ft 437 kts 26°
2026-04-22 16:58 43.35864 6.00921 34130 ft 437 kts 25°
2026-04-22 16:58 43.39474 6.03378 34126 ft 428 kts 14°
2026-04-22 16:58 43.42329 6.04343 34127 ft 420 kts
2026-04-22 16:59 43.48125 6.04973 34147 ft 417 kts 359°
2026-04-22 16:59 43.53872 6.05498 34133 ft 416 kts 359°
2026-04-22 17:00 43.59658 6.06063 34136 ft 416 kts 359°
2026-04-22 17:00 43.68323 6.06936 34149 ft 416 kts 359°
2026-04-22 17:01 43.74099 6.07527 34134 ft 416 kts
2026-04-22 17:01 43.79762 6.09569 34157 ft 428 kts 19°
2026-04-22 17:02 43.85054 6.13194 34138 ft 427 kts 20°
2026-04-22 17:02 43.90380 6.16871 34137 ft 427 kts 20°
2026-04-22 17:03 43.95704 6.20498 34136 ft 426 kts 19°
2026-04-22 17:03 44.01024 6.24138 34138 ft 426 kts 20°
2026-04-22 17:04 44.06350 6.27798 34139 ft 427 kts 19°
2026-04-22 17:04 44.11672 6.31458 34128 ft 426 kts 19°
2026-04-22 17:05 44.16990 6.35128 34132 ft 426 kts 19°
2026-04-22 17:05 44.22301 6.38796 34121 ft 426 kts 20°
2026-04-22 17:06 44.26712 6.41854 34128 ft 427 kts 20°
2026-04-22 17:06 44.32892 6.46118 34122 ft 426 kts 19°
2026-04-22 17:07 44.37295 6.49168 34117 ft 423 kts 20°
2026-04-22 17:07 44.42571 6.52833 34113 ft 423 kts 20°
2026-04-22 17:08 44.47842 6.56497 34136 ft 422 kts 19°
2026-04-22 17:08 44.53106 6.60166 34125 ft 424 kts 20°
2026-04-22 17:09 44.58369 6.63851 34131 ft 422 kts 20°
2026-04-22 17:09 44.63624 6.67523 34135 ft 422 kts 20°
2026-04-22 17:10 44.68850 6.71188 34158 ft 423 kts 20°
2026-04-22 17:10 44.74100 6.74884 34157 ft 422 kts 20°
2026-04-22 17:11 44.79445 6.78129 34169 ft 413 kts
2026-04-22 17:11 44.82261 6.78804 34155 ft 408 kts 358°
2026-04-22 17:11 44.85082 6.78789 34166 ft 404 kts 353°
2026-04-22 17:12 44.90693 6.78373 34161 ft 404 kts 352°
2026-04-22 17:12 44.96320 6.77978 34169 ft 404 kts 353°
2026-04-22 17:13 45.01924 6.77602 34167 ft 404 kts 352°
2026-04-22 17:13 45.07534 6.77235 34145 ft 402 kts 353°
2026-04-22 17:14 45.13152 6.76865 34159 ft 404 kts 352°
2026-04-22 17:14 45.18782 6.76494 34178 ft 404 kts 352°
2026-04-22 17:15 45.24383 6.76114 34119 ft 402 kts 352°
2026-04-22 17:15 45.29943 6.75742 34135 ft 403 kts 352°
2026-04-22 17:16 45.35526 6.75375 34130 ft 401 kts 352°
2026-04-22 17:16 45.41089 6.75009 34135 ft 399 kts 352°
2026-04-22 17:17 45.46675 6.75979 34110 ft 416 kts 10°
2026-04-22 17:17 45.49366 6.77651 34117 ft 427 kts 20°
2026-04-22 17:17 45.51957 6.79794 34129 ft 430 kts 22°
2026-04-22 17:18 45.57074 6.84110 34151 ft 429 kts 22°
2026-04-22 17:18 45.62201 6.88369 34130 ft 425 kts 21°
2026-04-22 17:19 45.72423 6.96930 34126 ft 426 kts 22°
2026-04-22 17:20 45.82628 7.05461 34113 ft 422 kts 21°
2026-04-22 17:21 45.90257 7.11821 34135 ft 424 kts 22°
2026-04-22 17:22 45.97879 7.18258 34119 ft 424 kts 22°
2026-04-22 17:23 46.05491 7.24715 34089 ft 425 kts 22°
2026-04-22 17:23 46.13123 7.31201 34086 ft 424 kts 22°
2026-04-22 17:24 46.18216 7.35547 34097 ft 425 kts 22°
2026-04-22 17:24 46.23318 7.39908 34082 ft 426 kts 22°
2026-04-22 17:25 46.28417 7.44265 34085 ft 426 kts 22°
2026-04-22 17:25 46.33482 7.48613 34112 ft 425 kts 22°
2026-04-22 17:26 46.38599 7.52997 34106 ft 428 kts 22°
2026-04-22 17:26 46.43731 7.57426 34129 ft 428 kts 22°
2026-04-22 17:27 46.48850 7.61846 34126 ft 428 kts 22°
2026-04-22 17:27 46.53924 7.66256 34116 ft 427 kts 23°
2026-04-22 17:28 46.59008 7.70729 34129 ft 428 kts 23°
2026-04-22 17:28 46.64064 7.75323 34135 ft 428 kts 24°
2026-04-22 17:29 46.69115 7.79908 34135 ft 427 kts 24°
2026-04-22 17:29 46.74190 7.84473 34144 ft 429 kts 24°
2026-04-22 17:30 46.79267 7.89048 34147 ft 429 kts 24°
2026-04-22 17:30 46.84326 7.93683 34148 ft 429 kts 24°
2026-04-22 17:31 46.89381 7.98320 34132 ft 428 kts 24°
2026-04-22 17:31 46.94426 8.02927 34189 ft 433 kts 25°
2026-04-22 17:32 46.99529 8.07612 34175 ft 433 kts 25°
2026-04-22 17:32 47.04641 8.12322 34193 ft 433 kts 26°
2026-04-22 17:33 47.09735 8.17045 34211 ft 433 kts 26°
2026-04-22 17:33 47.14839 8.21785 34186 ft 435 kts 26°
2026-04-22 17:34 47.19966 8.26527 34208 ft 435 kts 26°
2026-04-22 17:34 47.25080 8.31287 34218 ft 435 kts 27°
2026-04-22 17:35 47.30178 8.36020 34217 ft 435 kts 27°
2026-04-22 17:35 47.35297 8.40817 34212 ft 436 kts 27°
2026-04-22 17:36 47.40426 8.45609 34233 ft 436 kts 27°
2026-04-22 17:36 47.45515 8.50395 34233 ft 436 kts 27°
2026-04-22 17:37 47.50631 8.55198 34233 ft 435 kts 27°
2026-04-22 17:37 47.55753 8.59995 34234 ft 435 kts 28°
2026-04-22 17:38 47.60851 8.64833 34242 ft 435 kts 28°
2026-04-22 17:38 47.65955 8.69683 34236 ft 435 kts 28°
2026-04-22 17:39 47.71050 8.74535 34249 ft 433 kts 28°
2026-04-22 17:40 47.78672 8.81778 34252 ft 433 kts 28°
2026-04-22 17:40 47.83733 8.86563 34258 ft 434 kts 28°
2026-04-22 17:41 47.88815 8.91416 34285 ft 434 kts 30°
2026-04-22 17:41 47.93885 8.96293 34261 ft 433 kts 30°
2026-04-22 17:42 47.98948 9.01170 34265 ft 433 kts 30°
2026-04-22 17:42 48.03155 9.05238 34259 ft 433 kts 30°
2026-04-22 17:43 48.09073 9.10945 34258 ft 433 kts 30°
2026-04-22 17:43 48.14137 9.15810 34262 ft 431 kts 28°
2026-04-22 17:44 48.19701 9.18863 34254 ft 426 kts
2026-04-22 17:44 48.25588 9.19837 34262 ft 426 kts
2026-04-22 17:45 48.31480 9.20753 34259 ft 426 kts
2026-04-22 17:45 48.37374 9.21738 34262 ft 426 kts
2026-04-22 17:46 48.43266 9.22734 34258 ft 426 kts
2026-04-22 17:46 48.49121 9.23726 34258 ft 426 kts
2026-04-22 17:47 48.55011 9.24719 34260 ft 426 kts
2026-04-22 17:47 48.60909 9.25723 34257 ft 426 kts
2026-04-22 17:48 48.65817 9.26522 34259 ft 426 kts
2026-04-22 17:48 48.72724 9.27570 34264 ft 426 kts
2026-04-22 17:49 48.78588 9.28463 34260 ft 426 kts
2026-04-22 17:49 48.84525 9.29373 34262 ft 426 kts
2026-04-22 17:50 48.90396 9.30271 34268 ft 426 kts
2026-04-22 17:50 48.96299 9.31175 34267 ft 425 kts
2026-04-22 17:51 49.02182 9.32080 34275 ft 425 kts
2026-04-22 17:51 49.08067 9.32996 34278 ft 425 kts
2026-04-22 17:52 49.13952 9.33915 34281 ft 425 kts
2026-04-22 17:52 49.19840 9.34830 34282 ft 425 kts
2026-04-22 17:53 49.25726 9.35749 34292 ft 425 kts
2026-04-22 17:53 49.31574 9.36659 34279 ft 425 kts
2026-04-22 17:54 49.37449 9.37580 34291 ft 425 kts
2026-04-22 17:54 49.43332 9.38507 34302 ft 424 kts
2026-04-22 17:55 49.48257 9.39286 34302 ft 424 kts
2026-04-22 17:55 49.54133 9.40212 34304 ft 425 kts
2026-04-22 17:56 49.60015 9.41138 34312 ft 425 kts
2026-04-22 17:56 49.65901 9.42076 34313 ft 426 kts
2026-04-22 17:57 49.71798 9.43014 34313 ft 426 kts
2026-04-22 17:57 49.77656 9.43951 34320 ft 425 kts
2026-04-22 17:58 49.83549 9.44896 34319 ft 427 kts
2026-04-22 17:58 49.89464 9.45842 34322 ft 428 kts
2026-04-22 17:59 49.95395 9.46789 34322 ft 428 kts
2026-04-22 17:59 50.01319 9.47731 34320 ft 428 kts
2026-04-22 18:00 50.06248 9.48523 34324 ft 430 kts
2026-04-22 18:00 50.13211 9.49733 34327 ft 430 kts
2026-04-22 18:01 50.19157 9.50804 34331 ft 430 kts
2026-04-22 18:01 50.25123 9.51866 34335 ft 430 kts
2026-04-22 18:02 50.31069 9.52921 34337 ft 432 kts
2026-04-22 18:02 50.37052 9.53986 34336 ft 433 kts
2026-04-22 18:03 50.43037 9.55055 34331 ft 433 kts
2026-04-22 18:03 50.48995 9.56119 34326 ft 434 kts
2026-04-22 18:04 50.55017 9.57198 34336 ft 435 kts
2026-04-22 18:04 50.61035 9.58275 34339 ft 435 kts
2026-04-22 18:05 50.67062 9.59350 34342 ft 435 kts
2026-04-22 18:05 50.73082 9.60443 34342 ft 435 kts
2026-04-22 18:06 50.79105 9.61528 34344 ft 435 kts
2026-04-22 18:06 50.85119 9.62618 34346 ft 435 kts
2026-04-22 18:07 50.91144 9.63710 34343 ft 435 kts
2026-04-22 18:07 50.97164 9.64808 34341 ft 436 kts
2026-04-22 18:08 51.03198 9.65915 34346 ft 436 kts
2026-04-22 18:08 51.09224 9.67031 34343 ft 436 kts
2026-04-22 18:09 51.15225 9.68137 34346 ft 436 kts
2026-04-22 18:09 51.21269 9.69251 34345 ft 438 kts
2026-04-22 18:10 51.27346 9.70207 34348 ft 439 kts
2026-04-22 18:10 51.33485 9.71181 34352 ft 448 kts
2026-04-22 18:11 51.39702 9.72198 34355 ft 449 kts
2026-04-22 18:11 51.45864 9.73670 34348 ft 449 kts 12°
2026-04-22 18:12 51.52046 9.75256 34354 ft 449 kts 12°
2026-04-22 18:12 51.57181 9.76549 34357 ft 449 kts 12°
2026-04-22 18:13 51.64371 9.78355 34352 ft 449 kts 12°
2026-04-22 18:13 51.70563 9.79931 34361 ft 451 kts 12°
2026-04-22 18:14 51.76770 9.81495 34368 ft 451 kts 12°
2026-04-22 18:14 51.82968 9.83065 34370 ft 451 kts 12°
2026-04-22 18:15 51.89175 9.84650 34356 ft 452 kts 13°
2026-04-22 18:15 51.95400 9.86235 34366 ft 453 kts 13°
2026-04-22 18:16 52.01631 9.87828 34370 ft 453 kts 13°
2026-04-22 18:16 52.07861 9.89426 34370 ft 453 kts 13°
2026-04-22 18:17 52.14090 9.91032 33984 ft 453 kts 13°
2026-04-22 18:17 52.17211 9.91836 33638 ft 454 kts 13°
2026-04-22 18:17 52.20339 9.92644 33282 ft 455 kts 13°
2026-04-22 18:17 52.23470 9.93456 32786 ft 455 kts 13°
2026-04-22 18:18 52.26595 9.94269 32092 ft 456 kts 13°
2026-04-22 18:18 52.29704 9.95074 31368 ft 458 kts 13°
2026-04-22 18:18 52.32855 9.95892 30637 ft 460 kts 13°
2026-04-22 18:18 52.36032 9.96718 29785 ft 462 kts 13°
2026-04-22 18:19 52.39210 9.97545 28918 ft 465 kts 13°
2026-04-22 18:19 52.42413 9.98380 28054 ft 467 kts 12°
2026-04-22 18:19 52.45631 9.99220 27218 ft 469 kts 12°
2026-04-22 18:19 52.48871 10.00069 26433 ft 471 kts 12°
2026-04-22 18:20 52.52116 10.00922 25710 ft 474 kts 12°
2026-04-22 18:20 52.55379 10.01774 25007 ft 476 kts 11°
2026-04-22 18:20 52.58624 10.02639 24302 ft 467 kts 11°
2026-04-22 18:20 52.61808 10.03505 23566 ft 460 kts 11°
2026-04-22 18:21 52.64941 10.04358 22760 ft 452 kts 11°
2026-04-22 18:21 52.68021 10.05194 21979 ft 446 kts 11°
2026-04-22 18:21 52.71055 10.06016 21224 ft 439 kts 11°
2026-04-22 18:21 52.74057 10.06833 20488 ft 433 kts 11°
2026-04-22 18:22 52.77005 10.07638 19762 ft 426 kts 11°
2026-04-22 18:22 52.79909 10.08429 19064 ft 420 kts 11°
2026-04-22 18:22 52.82779 10.09212 18360 ft 414 kts 11°
2026-04-22 18:22 52.85564 10.09973 17925 ft 402 kts 11°
2026-04-22 18:23 52.88276 10.10715 17599 ft 388 kts 11°
2026-04-22 18:23 52.90894 10.11432 17311 ft 375 kts 11°
2026-04-22 18:23 52.93446 10.12133 17045 ft 369 kts 11°
2026-04-22 18:24 52.98489 10.13523 16514 ft 365 kts 11°
2026-04-22 18:24 53.00989 10.14210 16259 ft 364 kts 11°
2026-04-22 18:24 53.05952 10.15584 15755 ft 356 kts 11°
2026-04-22 18:25 53.08353 10.16248 15504 ft 347 kts 11°
2026-04-22 18:25 53.10702 10.16897 15260 ft 345 kts 11°
2026-04-22 18:25 53.13068 10.17550 15017 ft 344 kts 11°
2026-04-22 18:26 53.17764 10.18856 14458 ft 339 kts 11°
2026-04-22 18:26 53.20078 10.19500 13876 ft 338 kts 11°
2026-04-22 18:26 53.22479 10.20168 13270 ft 368 kts 10°
2026-04-22 18:26 53.24998 10.20870 12631 ft 360 kts 10°
2026-04-22 18:27 53.27429 10.21545 12015 ft 347 kts 10°
2026-04-22 18:27 53.29779 10.22198 11444 ft 340 kts 10°
2026-04-22 18:27 53.32113 10.22854 10866 ft 339 kts 10°
2026-04-22 18:27 53.34431 10.23506 10291 ft 337 kts
2026-04-22 18:28 53.36744 10.24154 9661 ft 336 kts
2026-04-22 18:28 53.39037 10.24796 8991 ft 330 kts
2026-04-22 18:28 53.41261 10.25420 8355 ft 322 kts
2026-04-22 18:28 53.43465 10.26040 7759 ft 318 kts
2026-04-22 18:29 53.45610 10.26642 7154 ft 312 kts
2026-04-22 18:29 53.47709 10.27232 6668 ft 300 kts
2026-04-22 18:29 53.49714 10.27797 6284 ft 285 kts
2026-04-22 18:29 53.51618 10.28335 6007 ft 272 kts
2026-04-22 18:30 53.53467 10.28853 5757 ft 265 kts
2026-04-22 18:30 53.57026 10.29855 5250 ft 254 kts
2026-04-22 18:30 53.58759 10.30345 5010 ft 250 kts
2026-04-22 18:31 53.60433 10.30819 4955 ft 236 kts
2026-04-22 18:31 53.62000 10.31264 4893 ft 222 kts
2026-04-22 18:31 53.63483 10.31683 4611 ft 218 kts
2026-04-22 18:31 53.64985 10.32109 4245 ft 219 kts
2026-04-22 18:32 53.66497 10.32538 3838 ft 222 kts
2026-04-22 18:32 53.68041 10.32976 3410 ft 227 kts
2026-04-22 18:32 53.69596 10.33418 3072 ft 229 kts
2026-04-22 18:32 53.71190 10.33872 2950 ft 234 kts
2026-04-22 18:33 53.72798 10.33767 2932 ft 233 kts 342°
2026-04-22 18:33 53.74253 10.32634 2940 ft 230 kts 322°
2026-04-22 18:33 53.75232 10.30545 2972 ft 230 kts 295°
2026-04-22 18:33 53.75488 10.27877 2985 ft 235 kts 269°
2026-04-22 18:34 53.75308 10.25119 2987 ft 237 kts 264°
2026-04-22 18:34 53.75071 10.22345 2987 ft 239 kts 264°
2026-04-22 18:34 53.74838 10.19653 2980 ft 227 kts 264°
2026-04-22 18:34 53.74336 10.17128 2972 ft 232 kts 239°
2026-04-22 18:35 53.73229 10.15196 2718 ft 231 kts 216°
2026-04-22 18:35 53.71711 10.14191 2244 ft 238 kts 196°
2026-04-22 18:35 53.70121 10.13556 2000 ft 236 kts 205°
2026-04-22 18:35 53.68982 10.11758 1924 ft 228 kts 246°
2026-04-22 18:36 53.68253 10.09387 1586 ft 224 kts 243°
2026-04-22 18:36 53.67347 10.07440 1561 ft 199 kts 231°
2026-04-22 18:36 53.66329 10.05524 1893 ft 234 kts 233°
2026-04-22 18:36 53.65317 10.03479 2156 ft 224 kts 235°
2026-04-22 18:37 53.64357 10.01399 2303 ft 225 kts 237°
2026-04-22 18:37 53.63446 9.99254 2425 ft 225 kts 239°
2026-04-22 18:37 53.62856 9.97776 2506 ft 224 kts 241°
2026-04-22 18:37 53.61775 9.94833 2661 ft 224 kts 243°
2026-04-22 18:38 53.61015 9.92548 2809 ft 223 kts 246°
2026-04-22 18:38 53.60295 9.90223 2937 ft 225 kts 245°
2026-04-22 18:38 53.59526 9.87914 3562 ft 229 kts 242°
2026-04-22 18:39 53.57386 9.85281 3964 ft 241 kts 194°
2026-04-22 18:39 53.55714 9.85304 4003 ft 244 kts 165°
2026-04-22 18:39 53.54202 9.86654 4013 ft 252 kts 136°
2026-04-22 18:39 53.53065 9.88890 4017 ft 251 kts 125°
2026-04-22 18:40 53.51708 9.92050 4006 ft 252 kts 124°
2026-04-22 18:40 53.51020 9.93672 4000 ft 251 kts 124°
2026-04-22 18:40 53.50006 9.96062 3996 ft 251 kts 123°
2026-04-22 18:40 53.49304 9.98670 3984 ft 248 kts 97°
2026-04-22 18:41 53.49387 10.01502 3984 ft 243 kts 69°
2026-04-22 18:41 53.50182 10.03957 3995 ft 238 kts 51°
2026-04-22 18:41 53.51189 10.06175 3997 ft 238 kts 49°
2026-04-22 18:41 53.52207 10.08352 3994 ft 239 kts 49°
2026-04-22 18:42 53.53233 10.10544 3994 ft 238 kts 49°
2026-04-22 18:42 53.54262 10.12738 3996 ft 238 kts 49°
2026-04-22 18:42 53.55287 10.14936 3994 ft 238 kts 49°
2026-04-22 18:42 53.56311 10.17134 3997 ft 242 kts 49°
2026-04-22 18:43 53.57360 10.19384 3997 ft 244 kts 49°
2026-04-22 18:43 53.58401 10.21631 3996 ft 243 kts 49°
2026-04-22 18:43 53.59428 10.23850 3995 ft 243 kts 49°
2026-04-22 18:43 53.60471 10.26089 3992 ft 243 kts 49°
2026-04-22 18:44 53.61515 10.28336 3992 ft 244 kts 49°
2026-04-22 18:44 53.62559 10.30588 3990 ft 243 kts 49°
2026-04-22 18:44 53.63601 10.32837 3976 ft 244 kts 49°
2026-04-22 18:44 53.64648 10.35092 3973 ft 244 kts 49°
2026-04-22 18:45 53.65693 10.37345 3969 ft 243 kts 49°
2026-04-22 18:45 53.66735 10.39595 3964 ft 244 kts 49°
2026-04-22 18:45 53.67785 10.41803 3955 ft 237 kts 43°
2026-04-22 18:45 53.69121 10.43236 3941 ft 222 kts 13°
2026-04-22 18:46 53.70624 10.43314 3948 ft 218 kts 344°
2026-04-22 18:46 53.71963 10.42174 3962 ft 217 kts 326°
2026-04-22 18:46 53.73192 10.40686 3965 ft 218 kts 324°
2026-04-22 18:46 53.74412 10.39165 3963 ft 218 kts 324°
2026-04-22 18:47 53.75480 10.37367 3954 ft 220 kts 301°
2026-04-22 18:47 53.75865 10.34968 3944 ft 209 kts 271°
2026-04-22 18:47 53.75707 10.32532 3960 ft 209 kts 264°
2026-04-22 18:47 53.75483 10.30106 3975 ft 204 kts 264°
2026-04-22 18:48 53.75267 10.27823 3883 ft 190 kts 264°
2026-04-22 18:48 53.75056 10.25688 3684 ft 178 kts 264°
2026-04-22 18:48 53.74735 10.23718 3462 ft 173 kts 252°
2026-04-22 18:48 53.74164 10.21928 3130 ft 175 kts 237°
2026-04-22 18:49 53.73441 10.20271 2988 ft 175 kts 239°
2026-04-22 18:49 53.72725 10.18595 2883 ft 175 kts 238°
2026-04-22 18:49 53.72019 10.16953 2674 ft 175 kts 239°
2026-04-22 18:49 53.71300 10.15282 2453 ft 176 kts 237°
2026-04-22 18:50 53.70492 10.13731 2243 ft 176 kts 231°
2026-04-22 18:50 53.69688 10.12203 1997 ft 174 kts 234°
2026-04-22 18:50 53.68876 10.10653 1798 ft 177 kts 233°
2026-04-22 18:50 53.68096 10.09048 1562 ft 177 kts 235°
2026-04-22 18:51 53.67306 10.07463 1268 ft 174 kts 234°
2026-04-22 18:51 53.66525 10.05934 962 ft 168 kts 234°
2026-04-22 18:51 53.65834 10.04514 845 ft 137 kts 236°
2026-04-22 18:51 53.65270 10.03371 645 ft 126 kts 236°
2026-04-22 18:52 53.64703 10.02191 464 ft 131 kts 233°
2026-04-22 18:52 53.64100 10.00975 291 ft 136 kts 233°
2026-04-22 18:52 53.63482 9.99731 85 ft 140 kts 234°
2026-04-22 18:52 53.62901 9.98560 50 ft 120 kts 233°
2026-04-22 18:53 53.62570 9.97871 46 ft 26 kts 231°
2026-04-22 18:53 53.62492 9.97784 46 ft 15 kts 178°
2026-04-22 18:53 53.62459 9.97803 47 ft 2 kts 141°
2026-04-22 18:53 53.62429 9.97910 51 ft 8 kts 85°
2026-04-22 18:54 53.62445 9.98025 52 ft 12 kts 68°
2026-04-22 18:54 53.62496 9.98161 52 ft 15 kts 53°
2026-04-22 18:54 53.62573 9.98310 52 ft 18 kts 49°
2026-04-22 18:54 53.62661 9.98490 52 ft 21 kts 53°
2026-04-22 18:55 53.62762 9.98696 52 ft 24 kts 52°
2026-04-22 18:55 53.62875 9.98925 52 ft 26 kts 52°
2026-04-22 18:55 53.62994 9.99168 52 ft 25 kts 53°
2026-04-22 18:55 53.63066 9.99321 52 ft 11 kts 54°
2026-04-22 18:56 53.63079 9.99350 52 ft 0 kts 59°
2026-04-22 18:56 53.63092 9.99383 52 ft 12 kts 57°
2026-04-22 18:57 53.63164 9.99554 52 ft 19 kts 53°
2026-04-22 18:57 53.63213 9.99654 54 ft 3 kts 50°
2026-04-22 18:57 53.63223 9.99697 54 ft 6 kts 85°
2026-04-22 18:57 53.63194 9.99783 54 ft 14 kts 144°
2026-04-22 18:58 53.63119 9.99891 54 ft 15 kts 84°
2026-04-22 18:58 53.63183 10.00037 54 ft 17 kts 50°
2026-04-22 18:58 53.63232 10.00168 54 ft 11 kts 106°
2026-04-22 18:58 53.63157 10.00221 54 ft 13 kts 176°
2026-04-22 18:59 53.63118 10.00227 54 ft 1 kts 175°
2026-04-22 18:59 53.63098 10.00233 54 ft 5 kts 163°
2026-04-22 18:59 53.63077 10.00290 54 ft 0 kts 94°
2026-04-22 18:59 53.63076 10.00311 54 ft 4 kts 96°
2026-04-22 19:00 53.63074 10.00358 54 ft 4 kts 94°
2026-04-22 19:00 53.63074 10.00368 54 ft 0 kts 93°